| time (UTC) | temp C | wind direction | speed KPH | gust KPH | rain 1hr cm | rain 24hr cm | rain mn cm | humidity % | barometer mb |
| 20260510192545 | 4 | 45 | 0.0 | 0.0 | 0.00 | 0.03 | 0.03 | 98 | 1031.3 |
| 20260510191044 | 4 | 45 | 0.0 | 1.6 | 0.00 | 0.03 | 0.03 | 98 | 1031.2 |
| 20260510185545 | 4 | 53 | 0.0 | 0.0 | 0.00 | 0.03 | 0.03 | 98 | 1030.7 |
| 20260510184046 | 5 | 53 | 0.0 | 0.0 | 0.00 | 0.03 | 0.03 | 98 | 1030.5 |
| 20260510182545 | 5 | 53 | 0.0 | 0.0 | 0.00 | 0.03 | 0.03 | 98 | 1030.3 |
| 20260510181043 | 5 | 176 | 0.0 | 0.0 | 0.00 | 0.03 | 0.03 | 98 | 1030.1 |
| 20260510175543 | 5 | 175 | 0.0 | 0.0 | 0.00 | 0.03 | 0.03 | 98 | 1030.1 |
| 20260510174043 | 5 | 175 | 0.0 | 0.0 | 0.00 | 0.03 | 0.03 | 97 | 1030.0 |
| 20260510172539 | 5 | 175 | 0.0 | 0.0 | 0.00 | 0.03 | 0.03 | 97 | 1030.0 |
| 20260510171039 | 6 | 175 | 0.0 | 0.0 | 0.00 | 0.03 | 0.03 | 99 | 1029.9 |
| 20260510165539 | 6 | 175 | 0.0 | 1.6 | 0.00 | 0.03 | 0.03 | 99 | 1029.9 |
| 20260510164039 | 5 | 175 | 0.0 | 0.0 | 0.00 | 0.03 | 0.03 | 98 | 1029.8 |
| 20260510162539 | 5 | 175 | 0.0 | 0.0 | 0.00 | 0.03 | 0.03 | 98 | 1029.9 |
| 20260510161039 | 5 | 175 | 0.0 | 0.0 | 0.00 | 0.03 | 0.03 | 98 | 1030.0 |
| 20260510155539 | 5 | 175 | 0.0 | 0.0 | 0.00 | 0.03 | 0.03 | 97 | 1030.0 |
| 20260510154037 | 5 | 175 | 0.0 | 0.0 | 0.00 | 0.03 | 0.03 | 97 | 1030.0 |
| 20260510152537 | 5 | 175 | 0.0 | 0.0 | 0.00 | 0.03 | 0.03 | 97 | 1030.0 |
| 20260510151035 | 5 | 175 | 0.0 | 0.0 | 0.03 | 0.03 | 0.03 | 97 | 1030.0 |
| 20260510145532 | 6 | 175 | 0.0 | 0.0 | 0.03 | 0.03 | 0.03 | 97 | 1030.0 |
| 20260510144033 | 6 | 175 | 0.0 | 1.6 | 0.03 | 0.03 | 0.03 | 98 | 1030.0 |
| 20260510142533 | 7 | 175 | 0.0 | 1.6 | 0.03 | 0.03 | 0.03 | 98 | 1029.9 |
| 20260510141030 | 6 | 175 | 0.0 | 1.6 | 0.00 | 0.00 | 0.00 | 98 | 1030.0 |
| 20260510135530 | 6 | 280 | 0.0 | 0.0 | 0.00 | 0.00 | 0.00 | 97 | 1030.0 |
| 20260510134030 | 6 | 280 | 0.0 | 0.0 | 0.00 | 0.00 | 0.00 | 97 | 1030.0 |
| 20260510132530 | 6 | 280 | 0.0 | 0.0 | 0.00 | 0.00 | 0.00 | 97 | 1030.0 |
| 20260510131031 | 6 | 280 | 0.0 | 0.0 | 0.00 | 0.00 | 0.00 | 97 | 1030.1 |
| 20260510125530 | 6 | 280 | 0.0 | 0.0 | 0.00 | 0.00 | 0.00 | 97 | 1030.1 |
| 20260510124030 | 6 | 280 | 0.0 | 0.0 | 0.00 | 0.00 | 0.00 | 97 | 1030.2 |
| 20260510122528 | 6 | 280 | 0.0 | 0.0 | 0.00 | 0.00 | 0.00 | 96 | 1030.2 |
| 20260510121027 | 7 | 280 | 0.0 | 0.0 | 0.00 | 0.00 | 0.00 | 96 | 1030.2 |
| 20260510115527 | 7 | 280 | 0.0 | 0.0 | 0.00 | 0.00 | 0.00 | 97 | 1030.1 |
| 20260510114024 | 7 | 280 | 0.0 | 0.0 | 0.00 | 0.00 | 0.00 | 96 | 1029.9 |
| 20260510112522 | 7 | 280 | 0.0 | 0.0 | 0.00 | 0.00 | 0.00 | 96 | 1029.8 |
| 20260510111020 | 7 | 280 | 0.0 | 0.0 | 0.00 | 0.00 | 0.00 | 96 | 1029.6 |
| 20260510105518 | 7 | 280 | 0.0 | 0.0 | 0.00 | 0.00 | 0.00 | 95 | 1029.5 |
| 20260510104016 | 8 | 280 | 0.0 | 0.0 | 0.00 | 0.00 | 0.00 | 95 | 1029.5 |
| 20260510102513 | 8 | 280 | 0.0 | 0.0 | 0.00 | 0.00 | 0.00 | 96 | 1029.7 |
| 20260510101010 | 8 | 280 | 0.0 | 0.0 | 0.00 | 0.00 | 0.00 | 95 | 1029.5 |
| 20260510095508 | 8 | 280 | 0.0 | 0.0 | 0.00 | 0.00 | 0.00 | 94 | 1029.4 |
| 20260510094006 | 8 | 280 | 0.0 | 0.0 | 0.00 | 0.00 | 0.00 | 93 | 1029.2 |
| 20260510092506 | 8 | 280 | 0.0 | 0.0 | 0.00 | 0.00 | 0.00 | 93 | 1029.2 |
| 20260510091006 | 8 | 280 | 0.0 | 0.0 | 0.00 | 0.00 | 0.00 | 91 | 1029.0 |
| 20260510085506 | 9 | 280 | 0.0 | 0.0 | 0.00 | 0.00 | 0.00 | 90 | 1028.9 |
| 20260510084007 | 10 | 280 | 0.0 | 0.0 | 0.00 | 0.00 | 0.00 | 89 | 1028.7 |
| 20260510082506 | 11 | 280 | 0.0 | 0.0 | 0.00 | 0.00 | 0.00 | 90 | 1028.5 |
| 20260510081006 | 12 | 280 | 0.0 | 0.0 | 0.00 | 0.00 | 0.00 | 86 | 1028.2 |
| 20260510075506 | 13 | 280 | 0.0 | 0.0 | 0.00 | 0.00 | 0.00 | 85 | 1028.1 |
| 20260510074004 | 13 | 280 | 0.0 | 0.0 | 0.00 | 0.00 | 0.00 | 84 | 1027.9 |
| 20260510072502 | 15 | 280 | 0.0 | 0.0 | 0.00 | 0.00 | 0.00 | 77 | 1027.8 |
| 20260510071000 | 17 | 280 | 0.0 | 0.0 | 0.00 | 0.00 | 0.00 | 69 | 1027.7 |
| 20260510065500 | 19 | 280 | 0.0 | 0.0 | 0.00 | 0.00 | 0.00 | 65 | 1027.5 |
| 20260510064000 | 22 | 280 | 0.0 | 0.0 | 0.00 | 0.00 | 0.00 | 56 | 1027.4 |
| 20260510062500 | 23 | 280 | 0.0 | 0.0 | 0.00 | 0.00 | 0.00 | 53 | 1027.5 |
| 20260510061000 | 23 | 280 | 0.0 | 0.0 | 0.00 | 0.00 | 0.00 | 55 | 1027.4 |
| 20260510055454 | 24 | 280 | 0.0 | 1.6 | 0.00 | 0.00 | 0.00 | 54 | 1027.4 |
| 20260510053954 | 23 | 42 | 0.0 | 1.6 | 0.00 | 0.00 | 0.00 | 56 | 1027.3 |
| 20260510052454 | 23 | 295 | 0.0 | 3.2 | 0.00 | 0.00 | 0.00 | 57 | 1027.2 |
| 20260510050953 | 22 | 279 | 0.0 | 3.2 | 0.00 | 0.00 | 0.00 | 58 | 1027.3 |
| 20260510045454 | 22 | 273 | 0.0 | 3.2 | 0.00 | 0.00 | 0.00 | 62 | 1027.2 |
| 20260510043951 | 22 | 261 | 0.0 | 4.8 | 0.00 | 0.00 | 0.00 | 61 | 1027.3 |
| 20260510042452 | 22 | 274 | 1.6 | 4.8 | 0.00 | 0.00 | 0.00 | 62 | 1027.3 |
| 20260510040952 | 21 | 278 | 0.0 | 3.2 | 0.00 | 0.00 | 0.00 | 65 | 1027.3 |
| 20260510035452 | 21 | 115 | 1.6 | 6.4 | 0.00 | 0.00 | 0.00 | 62 | 1027.4 |
| 20260510033950 | 21 | 143 | 0.0 | 4.8 | 0.00 | 0.00 | 0.00 | 65 | 1027.5 |
| 20260510032448 | 21 | 148 | 0.0 | 4.8 | 0.00 | 0.00 | 0.00 | 66 | 1027.6 |
| 20260510030948 | 20 | 12 | 0.0 | 3.2 | 0.00 | 0.00 | 0.00 | 67 | 1027.7 |
| 20260510025447 | 20 | 122 | 0.0 | 4.8 | 0.00 | 0.00 | 0.00 | 71 | 1027.8 |
| 20260510023948 | 19 | 207 | 0.0 | 4.8 | 0.00 | 0.00 | 0.00 | 72 | 1028.0 |
| 20260510022446 | 18 | 153 | 0.0 | 6.4 | 0.00 | 0.00 | 0.00 | 74 | 1028.3 |
| 20260510020944 | 18 | 38 | 0.0 | 3.2 | 0.00 | 0.00 | 0.00 | 76 | 1028.4 |
| 20260510015442 | 17 | 127 | 0.0 | 4.8 | 0.00 | 0.00 | 0.00 | 77 | 1028.7 |
| 20260510013942 | 17 | 191 | 1.6 | 4.8 | 0.00 | 0.00 | 0.00 | 78 | 1028.9 |
| 20260510012441 | 16 | 223 | 1.6 | 6.4 | 0.00 | 0.00 | 0.00 | 80 | 1029.1 |
| 20260510010941 | 15 | 113 | 0.0 | 3.2 | 0.00 | 0.00 | 0.00 | 83 | 1029.2 |
| 20260510005440 | 14 | 97 | 1.6 | 4.8 | 0.00 | 0.00 | 0.00 | 84 | 1029.2 |
| 20260510003937 | 13 | 246 | 0.0 | 4.8 | 0.00 | 0.00 | 0.00 | 88 | 1029.2 |
| 20260510002447 | 12 | 152 | 0.0 | 3.2 | 0.00 | 0.00 | 0.00 | 95 | 1029.2 |
| 20260510000945 | 11 | 115 | 0.0 | 4.8 | 0.00 | 0.00 | 0.00 | 96 | 1029.2 |
| 20260509235445 | 11 | 166 | 0.0 | 6.4 | 0.00 | 0.00 | 0.00 | 98 | 1029.2 |
| 20260509233941 | 10 | 212 | 0.0 | 4.8 | 0.00 | 0.00 | 0.00 | 98 | 1029.1 |
| 20260509232434 | 10 | 147 | 0.0 | 3.2 | 0.00 | 0.00 | 0.00 | 99 | 1029.1 |
| 20260509230933 | 9 | 179 | 0.0 | 3.2 | 0.00 | 0.00 | 0.00 | 99 | 1029.2 |
| 20260509225433 | 8 | 120 | 0.0 | 1.6 | 0.00 | 0.00 | 0.00 | 99 | 1029.0 |
| 20260509223931 | 8 | 201 | 0.0 | 3.2 | 0.00 | 0.00 | 0.00 | 99 | 1029.0 |
| 20260509222429 | 7 | 98 | 0.0 | 1.6 | 0.00 | 0.00 | 0.00 | 99 | 1028.9 |
| 20260509220926 | 7 | 153 | 0.0 | 1.6 | 0.00 | 0.03 | 0.00 | 99 | 1028.8 |
| 20260509215425 | 5 | 90 | 0.0 | 1.6 | 0.00 | 0.03 | 0.00 | 99 | 1028.6 |
| 20260509213923 | 4 | 90 | 0.0 | 1.6 | 0.00 | 0.03 | 0.00 | 99 | 1028.4 |
| 20260509212421 | 2 | 89 | 0.0 | 0.0 | 0.00 | 0.03 | 0.00 | 98 | 1028.4 |
| 20260509210919 | 2 | 89 | 0.0 | 0.0 | 0.00 | 0.03 | 0.00 | 98 | 1028.1 |
| 20260509205417 | 2 | 90 | 0.0 | 0.0 | 0.00 | 0.03 | 0.00 | 98 | 1027.9 |
| 20260509203918 | 3 | 90 | 0.0 | 0.0 | 0.00 | 0.03 | 0.00 | 98 | 1027.8 |
| 20260509202417 | 3 | 89 | 0.0 | 0.0 | 0.00 | 0.03 | 0.00 | 98 | 1027.8 |
| 20260509200917 | 3 | 89 | 0.0 | 0.0 | 0.00 | 0.03 | 0.00 | 98 | 1027.7 |
| 20260509195417 | 4 | 90 | 0.0 | 0.0 | 0.00 | 0.03 | 0.00 | 99 | 1027.4 |
| 20260509193915 | 5 | 172 | 0.0 | 1.6 | 0.00 | 0.03 | 0.00 | 99 | 1027.2 |